Wind_Speed
8 7 7 7 6 6 6 1 6 8 8 6 6 7 7 8 7 8 10 10 9 9 10 10 10 10 10 10 10 10 10 10 10 10 10 9 9 9 9 8 8 7 7 6 6 5 5 5 5
8 7 7 6 5 7 3 4 10 9 8 7 8 8 9 9 8 10 10 11 11 11 11 11 11 11 11 11 11 11 11 11 11 11 10 10 10 10 9 9 9 8 8 8 7 6 6 6 6
8 8 7 6 5 5 3 10 12 12 10 9 9 10 11 11 11 11 12 12 12 12 12 12 12 12 12 12 12 12 12 12 12 12 12 11 11 11 10 10 9 9 9 9 8 8 8 8 8
9 8 7 5 4 3 7 12 14 12 11 11 11 12 12 12 12 13 13 13 12 12 12 13 13 13 13 13 13 13 13 13 13 13 13 13 12 12 11 10 10 10 10 10 10 10 9 9 9
9 8 7 4 3 6 13 15 13 11 12 13 13 14 13 13 14 14 14 14 13 13 13 13 14 14 13 14 14 14 14 14 14 14 14 14 13 12 12 11 11 11 11 11 11 11 11 11 11
9 9 7 3 3 11 17 16 14 12 12 14 15 16 15 14 15 15 15 16 15 14 14 14 15 15 15 15 15 15 16 16 16 15 15 14 14 13 13 13 13 13 13 12 13 13 13 13 12
10 9 6 4 7 14 19 18 16 14 13 15 17 18 16 15 16 16 16 17 17 16 16 16 16 16 17 17 17 17 17 17 16 16 16 16 15 14 14 14 14 14 14 14 14 14 14 14 14
10 9 7 6 10 14 21 19 17 17 16 17 18 19 18 16 16 16 17 19 19 17 17 18 17 17 17 18 18 18 18 17 17 17 17 17 16 15 15 15 15 15 15 15 15 15 16 16 16
9 8 5 6 12 16 20 19 17 19 18 19 19 19 18 17 17 17 18 19 20 19 18 19 19 19 19 19 20 20 19 19 18 19 19 18 18 17 17 16 16 16 16 16 16 16 16 17 17
9 8 8 13 18 19 20 19 18 18 19 20 20 18 17 17 17 18 19 20 20 20 20 18 19 20 20 20 21 21 20 20 21 21 21 20 20 19 18 18 18 18 18 17 18 18 18 18 18
11 11 14 17 19 19 18 18 17 18 20 21 20 20 18 18 18 19 20 21 22 21 20 20 20 21 21 21 22 21 21 22 22 23 23 22 22 21 20 20 19 19 18 18 19 19 19 19 18
13 14 16 17 18 18 18 18 19 19 19 21 22 22 20 18 19 20 20 21 22 22 21 22 21 22 23 22 22 22 22 23 23 24 24 24 24 23 22 21 21 20 20 19 19 19 20 20 20
13 15 16 17 18 18 19 19 20 20 20 21 23 24 22 20 21 22 22 22 22 21 22 22 23 23 24 23 23 24 25 24 24 25 25 25 25 24 23 22 23 22 21 21 20 20 20 20 20
14 16 17 18 19 19 20 20 21 20 20 22 23 25 24 23 23 23 23 23 22 22 22 23 23 24 24 24 24 25 26 26 26 26 26 26 26 25 24 24 24 24 23 23 22 21 20 20 21
14 15 17 18 19 20 20 19 20 19 21 22 24 25 25 25 24 24 23 23 23 23 23 23 24 25 24 24 26 26 27 27 28 27 26 27 27 27 27 25 25 24 24 23 23 22 21 22 22
14 15 15 16 18 20 21 20 20 21 22 23 25 25 26 26 24 24 25 25 24 24 24 25 26 26 26 26 26 26 28 28 29 28 28 28 28 27 27 26 25 25 24 24 24 23 23 23 23
12 14 14 15 17 20 21 21 20 22 23 24 25 25 26 26 25 25 25 25 25 25 26 26 27 26 26 26 27 27 28 29 29 29 29 28 28 28 27 26 26 25 25 24 24 24 25 25 25
12 14 15 16 18 20 21 22 21 22 22 24 27 27 27 27 27 27 25 26 26 27 27 27 27 27 27 28 28 29 29 29 29 29 28 27 27 28 27 26 26 27 26 25 26 26 26 26 27
14 14 14 16 19 22 23 22 23 24 24 26 29 28 28 27 28 28 27 27 27 27 28 28 28 28 29 30 30 30 29 30 30 29 28 28 28 28 27 27 26 26 27 27 27 27 27 27 28
15 16 17 18 20 24 24 23 23 25 25 26 28 28 28 27 27 28 28 27 27 26 28 29 29 30 31 31 31 30 30 29 29 29 28 28 28 29 28 27 26 27 27 27 26 27 27 27 27
16 16 18 20 21 22 23 22 23 25 25 26 26 27 28 28 29 29 29 29 28 28 29 29 30 30 30 31 30 30 30 29 29 29 28 28 28 28 29 28 27 27 28 27 27 27 27 27 27
16 17 18 20 21 21 22 24 23 24 26 28 25 25 27 28 29 30 30 30 29 27 28 29 30 30 30 30 30 30 29 29 29 30 29 29 28 28 28 28 28 27 27 27 28 28 28 28 28
16 17 18 20 21 21 21 24 24 23 26 27 25 25 28 29 29 31 30 29 29 29 28 29 29 30 30 30 30 30 30 30 30 29 29 28 28 27 28 28 28 28 27 27 27 28 28 29 29
18 19 19 19 20 21 20 23 23 22 24 27 28 27 27 28 29 30 30 29 28 28 27 27 28 29 29 30 31 31 31 30 29 29 28 27 27 27 28 28 28 28 28 27 27 28 28 28 28
18 18 19 19 19 19 19 23 23 23 22 25 27 28 28 28 29 29 29 29 28 28 28 27 27 28 28 29 30 31 30 30 28 28 28 27 27 27 27 27 28 28 28 28 27 27 27 27 27
17 18 19 21 20 19 19 21 23 23 23 24 26 27 29 28 28 28 28 28 27 26 26 26 26 27 27 28 28 29 29 30 29 28 28 27 27 27 27 27 27 27 27 27 27 26 26 26 26
18 18 19 22 22 22 21 20 22 24 25 24 24 26 28 28 27 27 26 27 27 26 26 26 26 27 27 27 28 28 29 28 28 27 27 26 26 26 26 26 26 26 27 27 26 26 26 26 26
19 19 20 21 23 23 21 21 25 25 25 25 22 24 27 28 26 26 25 25 25 25 26 26 27 27 27 27 27 28 28 27 26 25 25 24 25 25 25 26 25 26 26 26 25 25 25 25 25
19 19 19 21 22 23 25 25 25 25 25 26 25 24 26 26 25 25 24 24 25 25 25 25 27 28 28 27 27 27 27 27 25 24 24 24 25 25 25 25 25 25 25 24 24 25 25 24 24
19 19 20 21 22 22 26 28 28 27 25 25 26 26 26 25 24 23 22 23 24 24 24 25 26 26 26 26 27 28 28 27 26 25 25 25 25 25 25 25 24 24 23 23 22 23 24 24 24
Wind_Direction
176 169 162 153 141 111 86 126 244 249 246 247 257 264 275 285 292 292 295 302 306 303 304 300 294 290 287 288 290 290 290 290 288 287 285 285 286 285 286 287 287 289 292 294 295 298 302 305 307
179 177 173 163 143 103 64 245 252 257 261 265 266 271 275 281 292 290 294 298 300 298 299 296 293 290 288 286 287 287 289 289 288 286 284 284 285 285 285 287 288 288 290 290 288 289 292 296 294
186 184 182 174 143 120 190 233 250 260 269 269 271 276 281 286 294 294 296 298 301 299 299 296 293 290 288 286 285 286 288 289 289 287 287 286 286 285 285 285 287 288 288 287 286 285 285 287 288
194 192 189 180 158 184 227 240 253 261 272 272 275 278 284 287 291 294 295 297 300 301 299 296 293 290 288 287 287 287 287 287 287 288 289 288 287 286 285 285 287 287 287 286 285 285 284 284 285
200 199 191 185 193 229 242 247 259 260 268 271 275 279 283 285 289 291 294 294 295 297 297 294 290 288 287 287 287 287 286 286 286 288 288 287 286 285 283 284 284 283 282 282 282 283 283 282 281
204 202 190 196 250 254 260 264 263 261 265 269 273 279 281 283 287 291 294 294 294 295 296 293 289 286 285 284 285 285 285 286 285 286 287 285 283 281 281 281 281 280 280 280 281 281 280 277 277
213 205 198 212 240 255 262 267 267 266 266 268 272 277 281 286 287 289 293 294 294 294 293 292 289 287 284 283 284 284 285 286 285 285 286 284 281 279 278 280 280 279 279 281 281 280 279 278 277
221 221 212 228 240 250 261 264 263 266 267 269 269 273 284 289 286 289 290 293 294 294 293 291 289 288 286 285 286 286 285 285 285 284 285 284 281 279 278 279 279 280 279 280 280 281 279 277 276
225 222 217 237 246 247 257 262 265 265 265 272 272 276 283 286 288 289 290 292 292 293 293 291 290 289 287 286 287 286 285 285 285 285 284 283 281 279 278 278 279 279 279 278 279 281 280 277 275
227 218 227 235 240 245 258 264 269 274 272 272 276 277 282 285 286 287 290 292 290 291 290 289 289 290 288 286 285 284 285 286 285 285 284 283 282 281 279 279 281 280 279 279 279 278 279 277 274
235 232 236 244 247 254 262 267 269 273 273 273 280 282 280 283 286 288 290 291 292 294 290 291 291 289 288 286 284 284 284 286 286 286 284 282 280 280 280 278 279 279 279 281 282 280 277 276 274
248 250 250 257 260 267 269 271 267 268 272 274 275 279 281 282 287 289 288 291 293 294 291 291 290 288 287 287 287 287 287 288 287 286 284 281 279 279 280 280 279 280 279 280 282 282 282 276 274
256 263 264 268 270 270 271 273 271 274 273 277 281 282 282 286 287 288 288 290 291 291 290 289 288 288 288 286 286 286 288 288 287 286 284 283 281 280 280 281 281 281 280 281 282 282 285 282 278
259 265 272 274 276 277 277 279 278 277 274 274 277 282 288 290 286 286 288 289 290 290 287 287 288 288 286 285 285 286 287 289 288 286 282 282 282 279 278 281 282 282 281 282 282 283 283 282 279
268 273 280 283 283 283 284 283 284 279 278 278 281 283 286 286 285 283 285 287 289 291 289 287 286 286 284 284 285 287 288 288 288 287 284 283 282 280 277 281 282 282 282 282 282 282 283 282 281
284 291 293 291 290 287 288 285 284 280 280 278 280 283 286 284 283 283 285 287 288 289 288 285 284 284 283 284 284 286 287 287 287 286 284 283 282 281 279 281 281 282 282 282 281 282 282 282 282
295 296 295 286 282 284 285 285 282 281 278 278 281 283 285 286 285 284 283 285 287 287 287 285 283 283 283 284 285 286 287 287 287 287 284 280 279 280 279 280 280 282 282 281 280 280 281 283 283
277 270 269 270 272 276 282 284 282 277 276 283 285 286 285 285 287 287 282 282 283 285 285 285 283 281 281 283 285 285 285 285 286 287 282 278 277 278 280 281 281 280 281 280 278 280 281 283 284
268 271 271 269 273 276 278 280 283 281 280 282 283 285 289 289 291 290 287 285 281 281 283 283 282 281 281 283 284 285 284 284 284 284 284 281 278 279 281 279 280 280 280 280 280 280 281 282 283
274 278 278 276 275 277 282 283 286 284 282 281 285 288 291 292 288 288 287 285 282 280 281 282 281 283 282 283 283 284 283 283 283 284 285 284 282 281 280 280 279 280 280 280 279 279 280 282 282
280 280 278 279 281 280 284 284 281 283 283 284 285 288 289 291 288 284 284 283 282 281 283 283 283 284 284 284 284 284 284 283 281 282 283 284 284 282 279 279 278 279 279 279 279 279 279 281 282
283 280 278 283 286 285 286 288 286 286 286 288 291 290 289 290 289 286 285 283 284 286 284 282 282 283 283 282 282 285 285 284 283 283 286 284 282 281 280 279 279 278 279 279 281 281 278 280 280
285 286 286 288 289 290 289 287 284 281 282 287 292 290 290 290 289 290 288 288 288 288 286 282 280 281 282 280 280 282 282 284 282 284 286 284 283 283 282 282 282 280 280 281 282 282 280 279 278
290 292 295 292 289 288 288 287 289 284 283 288 291 292 292 291 290 291 290 289 289 288 287 282 279 280 280 279 280 281 282 285 286 285 283 284 285 285 285 284 283 281 279 280 281 283 282 279 278
295 298 299 295 293 290 289 285 286 288 288 289 291 293 293 293 293 292 291 290 290 289 287 284 281 281 282 281 281 283 284 286 286 286 285 285 286 287 286 283 282 281 280 279 280 282 283 281 279
296 297 298 299 299 296 290 283 287 287 286 287 289 291 295 296 295 293 293 292 291 290 288 285 282 281 282 282 282 284 285 284 285 284 284 285 285 286 284 282 282 281 280 279 280 281 282 282 280
294 295 295 297 299 301 299 290 291 291 292 290 289 291 295 297 296 296 295 294 293 288 286 286 284 283 283 285 286 284 285 285 285 285 286 285 286 286 284 284 284 283 280 279 280 281 283 282 280
294 297 295 295 296 296 297 295 289 296 299 296 296 299 299 297 298 298 296 294 296 292 287 286 286 286 286 286 287 288 286 286 286 286 288 289 288 289 288 288 284 283 283 279 278 281 282 281 280
293 294 293 292 294 296 298 294 292 297 298 299 300 302 303 300 299 299 297 296 295 294 290 287 286 290 289 288 289 289 288 287 286 287 288 290 289 288 288 290 286 284 282 280 278 278 278 280 279
291 292 291 290 291 291 294 297 300 299 298 299 300 300 300 301 305 303 299 296 295 294 292 290 289 291 291 289 288 288 288 288 287 288 287 288 288 288 288 288 285 284 283 283 281 279 278 277 278
Height
5903 5905 5907 5909 5911 5912 5912 5915 5915 5913 5912 5912 5912 5911 5910 5910 5910 5912 5909 5907 5907 5906 5905 5905 5904 5904 5903 5903 5902 5902 5901 5901 5900 5899 5899 5898 5897 5896 5895 5895 5894 5893 5893 5892 5892 5891 5891 5890 5890
5903 5905 5907 5909 5910 5911 5915 5915 5914 5912 5912 5911 5911 5910 5909 5908 5908 5908 5907 5906 5906 5905 5904 5904 5903 5902 5902 5901 5901 5900 5900 5899 5898 5898 5897 5896 5895 5894 5894 5893 5892 5892 5891 5891 5890 5890 5889 5889 5888
5903 5905 5907 5908 5909 5912 5915 5913 5912 5911 5911 5911 5910 5910 5909 5908 5907 5907 5906 5905 5905 5904 5903 5902 5902 5901 5900 5900 5899 5899 5898 5897 5897 5896 5895 5895 5894 5893 5892 5892 5891 5890 5890 5889 5889 5888 5888 5887 5887
5902 5905 5907 5909 5910 5912 5912 5910 5910 5910 5910 5909 5909 5908 5908 5907 5906 5905 5904 5903 5903 5902 5901 5901 5900 5899 5899 5898 5897 5897 5896 5895 5895 5894 5893 5893 5892 5891 5890 5890 5889 5888 5888 5887 5887 5887 5886 5886 5885
5902 5904 5906 5908 5910 5911 5911 5908 5909 5908 5908 5908 5907 5906 5905 5905 5904 5903 5902 5901 5901 5900 5899 5899 5898 5897 5897 5896 5895 5895 5894 5893 5893 5892 5891 5890 5890 5889 5888 5887 5887 5886 5886 5885 5885 5885 5884 5884 5883
5901 5903 5906 5908 5911 5911 5909 5906 5907 5907 5906 5906 5904 5903 5903 5903 5902 5901 5900 5899 5898 5898 5897 5896 5895 5895 5894 5894 5893 5892 5892 5891 5890 5889 5889 5888 5887 5886 5886 5885 5884 5884 5883 5883 5882 5882 5882 5882 5881
5900 5901 5904 5907 5911 5910 5908 5906 5906 5904 5904 5904 5901 5900 5899 5899 5899 5898 5897 5896 5895 5896 5894 5893 5892 5892 5891 5891 5890 5889 5889 5888 5887 5887 5886 5885 5884 5884 5883 5883 5882 5881 5881 5880 5880 5879 5879 5879 5878
5898 5900 5902 5906 5909 5909 5905 5903 5903 5902 5901 5901 5898 5897 5896 5897 5895 5895 5894 5893 5892 5892 5891 5890 5890 5889 5888 5887 5887 5886 5885 5885 5884 5884 5883 5882 5882 5881 5880 5880 5879 5879 5878 5878 5877 5876 5876 5876 5876
5897 5900 5901 5904 5906 5904 5900 5900 5900 5898 5899 5897 5894 5893 5894 5893 5892 5892 5891 5890 5889 5888 5888 5887 5886 5886 5885 5884 5883 5883 5882 5881 5881 5880 5880 5879 5879 5878 5878 5877 5876 5876 5875 5874 5874 5873 5873 5872 5872
5895 5897 5899 5900 5900 5898 5896 5896 5896 5895 5894 5893 5890 5889 5889 5890 5889 5889 5888 5887 5885 5884 5884 5884 5883 5882 5882 5881 5880 5879 5878 5878 5877 5877 5876 5876 5875 5875 5874 5874 5873 5872 5872 5871 5870 5870 5869 5869 5869
5893 5894 5895 5895 5895 5894 5894 5892 5894 5892 5891 5890 5885 5883 5885 5887 5886 5886 5885 5884 5883 5881 5879 5880 5879 5879 5878 5877 5875 5873 5874 5873 5873 5873 5872 5872 5871 5871 5871 5870 5869 5868 5868 5867 5866 5866 5865 5865 5865
5890 5890 5891 5891 5891 5892 5891 5890 5891 5889 5887 5886 5884 5882 5880 5882 5882 5882 5881 5881 5879 5878 5877 5876 5875 5875 5874 5873 5872 5869 5869 5869 5869 5869 5868 5867 5867 5866 5866 5866 5865 5864 5863 5863 5862 5862 5861 5861 5860
5888 5888 5887 5888 5888 5888 5887 5886 5886 5885 5884 5882 5880 5878 5877 5877 5879 5878 5877 5876 5875 5874 5873 5872 5871 5870 5869 5868 5867 5866 5865 5865 5864 5864 5863 5863 5862 5862 5861 5861 5860 5860 5859 5858 5858 5857 5856 5855 5855
5885 5885 5885 5884 5884 5884 5884 5884 5883 5881 5880 5880 5877 5876 5873 5873 5874 5873 5872 5871 5870 5869 5868 5868 5866 5865 5864 5863 5863 5861 5861 5860 5859 5858 5858 5857 5857 5857 5856 5856 5855 5855 5854 5853 5853 5852 5851 5851 5850
5881 5882 5881 5881 5881 5880 5880 5880 5879 5878 5876 5875 5874 5873 5871 5870 5869 5868 5867 5867 5866 5864 5863 5862 5861 5861 5860 5858 5857 5856 5855 5855 5854 5853 5852 5852 5851 5851 5850 5850 5850 5849 5849 5848 5847 5847 5846 5846 5846
5878 5878 5879 5879 5878 5877 5877 5876 5875 5873 5872 5871 5869 5869 5867 5865 5864 5863 5862 5862 5861 5860 5859 5858 5856 5855 5854 5853 5852 5851 5850 5849 5849 5848 5847 5846 5846 5845 5845 5844 5844 5844 5843 5843 5842 5842 5842 5841 5841
5877 5877 5878 5879 5877 5875 5873 5872 5871 5869 5868 5866 5864 5863 5862 5859 5858 5858 5858 5856 5855 5854 5853 5852 5851 5850 5849 5848 5847 5846 5845 5844 5843 5842 5841 5840 5840 5839 5839 5839 5839 5838 5837 5837 5836 5836 5836 5835 5835
5876 5876 5876 5876 5874 5873 5871 5869 5867 5865 5862 5860 5859 5858 5857 5855 5853 5852 5850 5849 5849 5849 5848 5846 5845 5844 5844 5843 5842 5840 5839 5838 5837 5836 5835 5834 5834 5833 5833 5833 5832 5832 5832 5831 5831 5830 5829 5829 5828
5872 5871 5871 5872 5870 5868 5867 5865 5863 5861 5859 5857 5856 5853 5851 5850 5848 5846 5844 5843 5843 5843 5842 5840 5839 5838 5838 5837 5835 5834 5832 5832 5831 5830 5829 5828 5828 5827 5827 5826 5826 5826 5825 5825 5824 5824 5823 5822 5822
5868 5868 5868 5866 5865 5863 5861 5860 5858 5856 5854 5853 5851 5849 5847 5846 5844 5841 5838 5837 5834 5836 5835 5834 5833 5833 5832 5830 5829 5828 5827 5825 5825 5825 5824 5823 5822 5821 5821 5820 5820 5820 5819 5818 5817 5817 5817 5816 5815
5865 5865 5864 5862 5860 5858 5856 5855 5854 5851 5848 5847 5846 5844 5842 5840 5838 5836 5834 5832 5830 5829 5828 5827 5827 5826 5825 5823 5822 5822 5821 5819 5819 5818 5818 5817 5817 5816 5815 5814 5813 5813 5812 5811 5810 5810 5810 5809 5808
5861 5860 5858 5857 5856 5854 5853 5850 5848 5846 5844 5840 5840 5839 5837 5835 5832 5829 5828 5827 5825 5822 5822 5821 5820 5819 5818 5817 5816 5815 5814 5813 5812 5812 5811 5811 5810 5809 5808 5807 5806 5805 5805 5804 5803 5803 5802 5802 5802
5857 5856 5854 5852 5850 5849 5848 5845 5844 5842 5839 5836 5833 5832 5831 5829 5827 5824 5822 5820 5819 5817 5817 5815 5813 5812 5811 5810 5809 5808 5808 5807 5806 5805 5804 5804 5804 5803 5802 5800 5799 5798 5798 5797 5796 5795 5795 5794 5794
5853 5852 5850 5848 5846 5845 5844 5841 5838 5836 5834 5832 5829 5827 5825 5823 5821 5818 5816 5814 5813 5811 5810 5808 5807 5806 5805 5804 5803 5802 5801 5800 5799 5798 5798 5797 5797 5796 5795 5794 5792 5791 5790 5790 5789 5788 5787 5786 5786
5849 5848 5846 5844 5842 5841 5839 5835 5833 5830 5829 5827 5824 5822 5820 5818 5816 5813 5810 5808 5807 5805 5803 5801 5801 5800 5799 5798 5797 5795 5794 5793 5792 5792 5791 5790 5789 5788 5787 5786 5785 5784 5783 5783 5782 5781 5780 5779 5778
5846 5844 5843 5840 5837 5835 5834 5831 5829 5825 5823 5821 5819 5817 5815 5813 5810 5808 5805 5802 5800 5799 5796 5795 5794 5793 5793 5791 5790 5789 5788 5786 5786 5785 5784 5783 5782 5781 5779 5778 5778 5777 5776 5775 5774 5774 5773 5772 5771
5842 5840 5839 5836 5833 5831 5830 5828 5823 5820 5818 5816 5815 5813 5810 5807 5805 5802 5799 5796 5794 5792 5790 5789 5788 5788 5787 5785 5784 5783 5781 5780 5778 5777 5776 5775 5774 5773 5772 5771 5770 5769 5768 5768 5767 5766 5766 5765 5764
5839 5836 5834 5832 5828 5826 5825 5823 5819 5814 5813 5811 5808 5807 5804 5801 5799 5796 5793 5790 5789 5786 5785 5783 5782 5782 5780 5779 5777 5776 5774 5773 5772 5770 5769 5768 5767 5766 5765 5764 5763 5762 5761 5760 5760 5759 5758 5758 5757
5835 5833 5830 5828 5825 5822 5819 5820 5815 5810 5808 5807 5804 5802 5799 5795 5792 5790 5788 5786 5783 5781 5779 5777 5776 5775 5774 5772 5771 5770 5768 5767 5765 5764 5763 5762 5761 5760 5759 5757 5756 5755 5755 5754 5753 5753 5752 5751 5751
5830 5828 5826 5824 5821 5818 5815 5815 5810 5806 5804 5802 5799 5797 5794 5791 5788 5786 5783 5781 5778 5775 5773 5772 5770 5769 5767 5766 5765 5763 5761 5760 5759 5758 5756 5756 5755 5753 5752 5751 5750 5749 5748 5747 5746 5746 5745 5745 5744